MOOI WEER BOXTEL

Weerstation in Boxtel

Actuele weerinformatie en voorspellingen


Onweer radar Meer informatie blitzortung!


Regen radar Meer informatie rain snow radar


Meer informatie

Template documentation
and downloads

Weblog Hans on Experience

Profiel Hans Mestrum



Het weer levert geen direct gevaar op.    Er zijn geen waarschuwingen afgegeven.

Weather Underground Historische gegevens

Dagelijkse Samenvatting juli 20, 2018 Eenheden:  Metrisch    Engels   Beide
« Vorige Dag
Volgende Dag »
Dagelijkse Wekelijkse Maandelijkse Jaarlijkse Aangepaste
  Huidig: Hoog: Laag: Gemiddeld:
Temperatuur: -1.8 °C -17.8 °C -10.7 °C -7.4 °C
Dauwpunt: -10.3 °C -17.8 °C -11.2 °C -10.2 °C
Vochtigheid: 39 % Humidity % 39 % 75 %
Wind snelheid: 0 km/h 0 km/h 0 km/h 0.8 km/h
Windvlaag: 2.6 km/h 0 km/h - -
Wind:Calm - - SE
Luchtdruk: 34235.8 hPa 0 hPa 34235.8 hPa -
Neerslag: 0 mm      
Historical Graphs
 
 
Tabel voor juli 20, 2018
Tijd Temperatuur Dauwpunt Luchtdruk Wind Wind snelheid Windvlaag Vochtigheid Regenval per uur
-17.8 °C -17.8 °C 0 hPa Calm     Humidity % 0 mm
00:04 -7.4 °C -10 °C 34361.1 hPa Calm     74 % 0 mm
00:09 -7.5 °C -10.1 °C 34347.6 hPa Calm     74 % 0 mm
00:14 -7.6 °C -10.1 °C 34361.1 hPa Calm     75 % 0 mm
00:19 -7.6 °C -10 °C 34361.1 hPa Calm     76 % 0 mm
00:24 -7.7 °C -10.1 °C 34347.6 hPa Calm   2.6 km/h 76 % 0 mm
00:25 -7.7 °C -10.1 °C 34347.6 hPa Calm   2.6 km/h 76 % 0 mm
00:29 -7.7 °C -10 °C 34347.6 hPa Calm     77 % 0 mm
00:34 -7.8 °C -10.1 °C 34361.1 hPa Calm     77 % 0 mm
00:39 -7.8 °C -10 °C 34347.6 hPa Calm   2.6 km/h 78 % 0 mm
00:44 -7.9 °C -10.1 °C 34361.1 hPa Calm     78 % 0 mm
00:49 -7.9 °C -9.9 °C 34361.1 hPa Calm     79 % 0 mm
00:54 -7.9 °C -9.9 °C 34347.6 hPa Calm     79 % 0 mm
00:58 -7.9 °C -10 °C 34347.6 hPa Calm     79 % 0 mm
01:04 -7.9 °C -9.9 °C 34347.6 hPa Calm     80 % 0 mm
01:09 -8 °C -9.9 °C 34347.6 hPa Calm     80 % 0 mm
01:14 -8 °C -9.9 °C 34347.6 hPa Calm     80 % 0 mm
01:19 -8.1 °C -10.1 °C 34347.6 hPa Calm     80 % 0 mm
01:24 -8.2 °C -10.1 °C 34347.6 hPa Calm     81 % 0 mm
01:29 -8.3 °C -10.1 °C 34347.6 hPa Calm     81 % 0 mm
01:34 -8.4 °C -10.2 °C 34347.6 hPa Calm     81 % 0 mm
01:39 -8.5 °C -10.3 °C 34347.6 hPa Calm     81 % 0 mm
01:44 -8.6 °C -10.3 °C 34347.6 hPa Calm     82 % 0 mm
01:49 -8.7 °C -10.4 °C 34347.6 hPa Calm     82 % 0 mm
01:54 -8.8 °C -10.5 °C 34337.4 hPa Calm     82 % 0 mm
01:59 -8.9 °C -10.5 °C 34337.4 hPa Calm     83 % 0 mm
02:04 -9 °C -10.5 °C 34337.4 hPa Calm     84 % 0 mm
02:08 -9.1 °C -10.6 °C 34337.4 hPa Calm     84 % 0 mm
02:14 -9.1 °C -10.6 °C 34337.4 hPa Calm     84 % 0 mm
02:19 -9.2 °C -10.6 °C 34337.4 hPa Calm     85 % 0 mm
02:24 -9.3 °C -10.6 °C 34337.4 hPa Calm     86 % 0 mm
02:29 -9.4 °C -10.7 °C 34337.4 hPa Calm     86 % 0 mm
02:34 -9.5 °C -10.8 °C 34337.4 hPa Calm     86 % 0 mm
02:39 -9.6 °C -10.7 °C 34337.4 hPa Calm     87 % 0 mm
02:44 -9.6 °C -10.8 °C 34337.4 hPa Calm     87 % 0 mm
02:49 -9.6 °C -10.7 °C 34327.3 hPa Calm     88 % 0 mm
02:54 -9.7 °C -10.8 °C 34327.3 hPa Calm     88 % 0 mm
02:59 -9.7 °C -10.8 °C 34327.3 hPa Calm     88 % 0 mm
03:04 -9.8 °C -10.9 °C 34327.3 hPa Calm     88 % 0 mm
03:09 -9.8 °C -10.8 °C 34327.3 hPa Calm     89 % 0 mm
03:14 -9.8 °C -10.8 °C 34327.3 hPa Calm     89 % 0 mm
03:19 -9.8 °C -10.7 °C 34327.3 hPa Calm     90 % 0 mm
03:23 -9.9 °C -10.8 °C 34327.3 hPa Calm     90 % 0 mm
03:29 -9.9 °C -10.8 °C 34327.3 hPa Calm     90 % 0 mm
03:34 -9.9 °C -10.8 °C 34327.3 hPa Calm     90 % 0 mm
03:39 -10 °C -10.8 °C 34313.7 hPa Calm     91 % 0 mm
03:44 -10.1 °C -10.9 °C 34313.7 hPa Calm     90 % 0 mm
03:49 -10.1 °C -10.9 °C 34313.7 hPa Calm     91 % 0 mm
03:54 -10.1 °C -10.9 °C 34313.7 hPa Calm     91 % 0 mm
03:59 -10.1 °C -10.8 °C 34313.7 hPa Calm     92 % 0 mm
04:03 -10.1 °C -10.8 °C 34313.7 hPa Calm     92 % 0 mm
04:09 -10.2 °C -10.9 °C 34313.7 hPa Calm     92 % 0 mm
04:14 -10.2 °C -10.9 °C 34313.7 hPa Calm     92 % 0 mm
04:19 -10.2 °C -10.9 °C 34313.7 hPa Calm     92 % 0 mm
04:24 -10.2 °C -10.9 °C 34313.7 hPa Calm     92 % 0 mm
04:29 -10.3 °C -11.1 °C 34313.7 hPa Calm     92 % 0 mm
04:34 -10.3 °C -10.9 °C 34313.7 hPa Calm     93 % 0 mm
04:39 -10.3 °C -10.9 °C 34313.7 hPa Calm     93 % 0 mm
04:44 -10.3 °C -10.9 °C 34313.7 hPa Calm     93 % 0 mm
04:49 -10.3 °C -10.9 °C 34313.7 hPa Calm     93 % 0 mm
04:54 -10.4 °C -11 °C 34313.7 hPa Calm     93 % 0 mm
04:59 -10.4 °C -11.1 °C 34313.7 hPa Calm     93 % 0 mm
05:04 -10.4 °C -11.1 °C 34313.7 hPa Calm     93 % 0 mm
05:09 -10.4 °C -10.9 °C 34313.7 hPa Calm     94 % 0 mm
05:14 -10.4 °C -10.9 °C 34313.7 hPa Calm     94 % 0 mm
05:19 -10.4 °C -10.9 °C 34313.7 hPa Calm     94 % 0 mm
05:24 -10.5 °C -11 °C 34313.7 hPa Calm     94 % 0 mm
05:29 -10.4 °C -10.9 °C 34313.7 hPa Calm     94 % 0 mm
05:34 -10.4 °C -10.9 °C 34313.7 hPa Calm     94 % 0 mm
05:38 -10.5 °C -11 °C 34303.6 hPa Calm     94 % 0 mm
05:44 -10.6 °C -11.1 °C 34303.6 hPa Calm     94 % 0 mm
05:49 -10.6 °C -11.1 °C 34303.6 hPa Calm     94 % 0 mm
05:54 -10.7 °C -11.2 °C 34303.6 hPa Calm     94 % 0 mm
05:59 -10.7 °C -11.2 °C 34303.6 hPa Calm     94 % 0 mm
06:04 -10.7 °C -11.2 °C 34303.6 hPa Calm     94 % 0 mm
06:09 -10.7 °C -11.2 °C 34303.6 hPa Calm     95 % 0 mm
06:14 -10.7 °C -11.2 °C 34303.6 hPa Calm     95 % 0 mm
06:19 -10.7 °C -11.1 °C 34303.6 hPa Calm     95 % 0 mm
06:24 -10.7 °C -11.1 °C 34303.6 hPa Calm     95 % 0 mm
06:29 -10.7 °C -11.1 °C 34303.6 hPa Calm     95 % 0 mm
06:34 -10.7 °C -11.1 °C 34303.6 hPa Calm     95 % 0 mm
06:38 -10.6 °C -11.1 °C 34303.6 hPa Calm     95 % 0 mm
06:44 -10.6 °C -11 °C 34293.4 hPa Calm     95 % 0 mm
06:48 -10.6 °C -11 °C 34293.4 hPa Calm     95 % 0 mm
06:54 -10.5 °C -10.9 °C 34293.4 hPa Calm     95 % 0 mm
06:59 -10.5 °C -10.9 °C 34293.4 hPa Calm     95 % 0 mm
07:04 -10.4 °C -10.7 °C 34293.4 hPa Calm     96 % 0 mm
07:09 -10.3 °C -10.7 °C 34293.4 hPa Calm     96 % 0 mm
07:14 -10.2 °C -10.6 °C 34293.4 hPa Calm     96 % 0 mm
07:19 -10.2 °C -10.5 °C 34293.4 hPa Calm     96 % 0 mm
07:24 -10.1 °C -10.4 °C 34293.4 hPa Calm     96 % 0 mm
07:29 -10 °C -10.3 °C 34293.4 hPa Calm     96 % 0 mm
07:34 -9.9 °C -10.2 °C 34293.4 hPa Calm     96 % 0 mm
07:38 -9.8 °C -10.2 °C 34293.4 hPa Calm     96 % 0 mm
07:44 -9.7 °C -10.1 °C 34293.4 hPa Calm     95 % 0 mm
07:49 -9.6 °C -10.1 °C 34293.4 hPa Calm     95 % 0 mm
07:54 -9.5 °C -9.9 °C 34293.4 hPa Calm     95 % 0 mm
07:59 -9.4 °C -9.8 °C 34293.4 hPa Calm     95 % 0 mm
08:04 -9.3 °C -9.7 °C 34293.4 hPa NW 2.9 km/h 2.6 km/h 95 % 0 mm
08:09 -9.1 °C -9.7 °C 34293.4 hPa Calm   2.6 km/h 94 % 0 mm
08:14 -9 °C -9.6 °C 34293.4 hPa Calm   5.1 km/h 93 % 0 mm
08:19 -8.8 °C -9.4 °C 34293.4 hPa Calm   2.6 km/h 93 % 0 mm
08:24 -8.7 °C -9.4 °C 34293.4 hPa Calm   5.1 km/h 92 % 0 mm
08:29 -8.6 °C -9.4 °C 34293.4 hPa Calm   2.6 km/h 91 % 0 mm
08:34 -8.4 °C -9.3 °C 34293.4 hPa Calm     90 % 0 mm
08:39 -8.2 °C -9.3 °C 34293.4 hPa Calm   5.1 km/h 88 % 0 mm
08:44 -8 °C -9.3 °C 34293.4 hPa Calm   2.6 km/h 86 % 0 mm
08:48 -7.9 °C -9.3 °C 34293.4 hPa Calm     85 % 0 mm
08:54 -7.7 °C -9.3 °C 34293.4 hPa Calm   5.1 km/h 83 % 0 mm
08:59 -7.3 °C -8.9 °C 34293.4 hPa Calm     83 % 0 mm
09:04 -7 °C -8.9 °C 34293.4 hPa Calm   7.7 km/h 80 % 0 mm
09:09 -6.7 °C -8.9 °C 34293.4 hPa Calm     78 % 0 mm
09:14 -6.5 °C -9.1 °C 34293.4 hPa NNE 2.9 km/h 7.7 km/h 75 % 0 mm
09:19 -6.3 °C -9 °C 34293.4 hPa Calm   2.6 km/h 74 % 0 mm
09:24 -6.2 °C -8.9 °C 34293.4 hPa Calm   7.7 km/h 73 % 0 mm
09:28 -6.1 °C -8.9 °C 34293.4 hPa West 2.9 km/h 7.7 km/h 72 % 0 mm
09:34 -5.8 °C -9.1 °C 34279.9 hPa Calm   10.3 km/h 69 % 0 mm
09:39 -5.9 °C -9.3 °C 34279.9 hPa NNE 5.1 km/h 12.9 km/h 68 % 0 mm
09:43 -5.9 °C -9.3 °C 34293.4 hPa NNE 2.9 km/h 7.7 km/h 68 % 0 mm
09:49 -5.8 °C -9.2 °C 34279.9 hPa Calm   7.7 km/h 68 % 0 mm
09:54 -5.7 °C -9.4 °C 34279.9 hPa Calm   7.7 km/h 66 % 0 mm
09:59 -5.6 °C -9.4 °C 34279.9 hPa Calm   15.6 km/h 65 % 0 mm
10:04 -5.6 °C -9.4 °C 34279.9 hPa East 5.1 km/h 7.7 km/h 65 % 0 mm
10:09 -5.6 °C -9.4 °C 34279.9 hPa Calm   7.7 km/h 65 % 0 mm
10:14 -5.4 °C -9.4 °C 34279.9 hPa Calm   10.3 km/h 64 % 0 mm
10:18 -5.3 °C -9.2 °C 34279.9 hPa Calm   5.1 km/h 65 % 0 mm
10:24 -5.1 °C -9.2 °C 34279.9 hPa Calm   12.9 km/h 63 % 0 mm
10:28 -5.1 °C -9.3 °C 34279.9 hPa Calm   15.6 km/h 62 % 0 mm
10:33 -4.9 °C -9.3 °C 34279.9 hPa Calm   2.6 km/h 61 % 0 mm
10:39 -4.9 °C -9.4 °C 34279.9 hPa Calm   7.7 km/h 60 % 0 mm
10:44 -4.8 °C -9.4 °C 34279.9 hPa Calm   5.1 km/h 60 % 0 mm
10:49 -4.8 °C -9.3 °C 34269.7 hPa Calm   5.1 km/h 60 % 0 mm
10:54 -4.6 °C -9.2 °C 34279.9 hPa Calm   2.6 km/h 60 % 0 mm
10:59 -4.4 °C -9.3 °C 34269.7 hPa Calm   7.7 km/h 58 % 0 mm
11:04 -4.2 °C -9.6 °C 34279.9 hPa Calm   7.7 km/h 55 % 0 mm
11:09 -4.2 °C -9.9 °C 34279.9 hPa North 2.9 km/h 10.3 km/h 53 % 0 mm
11:14 -4 °C -9.4 °C 34269.7 hPa Calm   2.6 km/h 55 % 0 mm
11:19 -3.8 °C -9.7 °C 34279.9 hPa Calm   10.3 km/h 52 % 0 mm
11:24 -3.8 °C -9.7 °C 34269.7 hPa Calm     52 % 0 mm
11:29 -3.6 °C -9.6 °C 34269.7 hPa Calm   5.1 km/h 51 % 0 mm
11:34 -3.6 °C -9.4 °C 34269.7 hPa Calm   5.1 km/h 52 % 0 mm
11:39 -3.4 °C -9.7 °C 34269.7 hPa East 2.9 km/h 5.1 km/h 50 % 0 mm
11:44 -3.3 °C -9.5 °C 34269.7 hPa Calm   5.1 km/h 50 % 0 mm
11:49 -3.1 °C -9.6 °C 34269.7 hPa ENE 8 km/h 7.7 km/h 49 % 0 mm
11:54 -3.4 °C -9.4 °C 34269.7 hPa Calm   12.9 km/h 51 % 0 mm
11:58 -3.4 °C -9.7 °C 34269.7 hPa Calm   10.3 km/h 50 % 0 mm
12:03 -3.2 °C -9.8 °C 34269.7 hPa Calm   10.3 km/h 48 % 0 mm
12:09 -3.2 °C -9.6 °C 34269.7 hPa SW 5.1 km/h 7.7 km/h 49 % 0 mm
12:14 -3.3 °C -9.6 °C 34269.7 hPa Calm   7.7 km/h 50 % 0 mm
12:19 -3.5 °C -9.9 °C 34269.7 hPa WNW 5.1 km/h 12.9 km/h 49 % 0 mm
12:24 -3.5 °C -9.7 °C 34269.7 hPa Calm   2.6 km/h 50 % 0 mm
12:29 -3.3 °C -9.4 °C 34269.7 hPa Calm   2.6 km/h 51 % 0 mm
12:34 -3 °C -9.3 °C 34269.7 hPa Calm   5.1 km/h 50 % 0 mm
12:39 -3 °C -9.4 °C 34269.7 hPa Calm   5.1 km/h 49 % 0 mm
12:44 -2.9 °C -9.6 °C 34269.7 hPa Calm   5.1 km/h 48 % 0 mm
12:49 -3.1 °C -10.1 °C 34269.7 hPa NNE 5.1 km/h 10.3 km/h 46 % 0 mm
12:54 -3.3 °C -10.3 °C 34269.7 hPa North 8 km/h 15.6 km/h 46 % 0 mm
12:59 -3.4 °C -10 °C 34256.2 hPa NNW 2.9 km/h 12.9 km/h 48 % 0 mm
13:04 -3.3 °C -10.1 °C 34269.7 hPa North 11.1 km/h 10.3 km/h 47 % 0 mm
13:09 -3.3 °C -10.2 °C 34256.2 hPa NE 5.1 km/h 28.5 km/h 46 % 0 mm
13:14 -3.5 °C -10.1 °C 34256.2 hPa ENE 5.1 km/h 10.3 km/h 48 % 0 mm
13:19 -3.4 °C -9.8 °C 34256.2 hPa Calm   10.3 km/h 49 % 0 mm
13:24 -3.2 °C -9.9 °C 34256.2 hPa Calm   7.7 km/h 47 % 0 mm
13:29 -2.9 °C -9.9 °C 34256.2 hPa NNW 11.1 km/h 12.9 km/h 46 % 0 mm
13:33 -2.8 °C -9.8 °C 34256.2 hPa NNW 2.9 km/h 10.3 km/h 46 % 0 mm
13:39 -2.9 °C -10.1 °C 34256.2 hPa NNE 5.1 km/h 10.3 km/h 45 % 0 mm
13:44 -2.7 °C -10.3 °C 34256.2 hPa ENE 8 km/h 10.3 km/h 43 % 0 mm
13:49 -2.9 °C -10.3 °C 34256.2 hPa Calm   7.7 km/h 44 % 0 mm
13:54 -2.8 °C -9.9 °C 34256.2 hPa SSW 5.1 km/h 7.7 km/h 45 % 0 mm
13:59 -2.7 °C -10.7 °C 34246 hPa Calm   5.1 km/h 41 % 0 mm
14:04 -2.4 °C -10.1 °C 34246 hPa Calm   2.6 km/h 43 % 0 mm
14:09 -2.3 °C -10.4 °C 34246 hPa Calm   10.3 km/h 41 % 0 mm
14:14 -2.4 °C -10.2 °C 34246 hPa NE 5.1 km/h 10.3 km/h 42 % 0 mm
14:19 -2.3 °C -10.2 °C 34246 hPa Calm   10.3 km/h 42 % 0 mm
14:23 -2.3 °C -10.5 °C 34246 hPa NE 5.1 km/h 10.3 km/h 40 % 0 mm
14:29 -2.4 °C -10.3 °C 34235.8 hPa SE 2.9 km/h 2.6 km/h 42 % 0 mm
14:34 -2.2 °C -10.4 °C 34235.8 hPa West 5.1 km/h 7.7 km/h 40 % 0 mm
14:39 -2.1 °C -10.3 °C 34246 hPa Calm   10.3 km/h 40 % 0 mm
14:44 -1.8 °C -10.3 °C 34235.8 hPa Calm   2.6 km/h 39 % 0 mm
Weerstation Boxtel
Gegevens verzameld door Weather Underground - 3.25 mb

Script ontwikkeld door  Jim McMurry - jmcmurry@mwt.net Aangepast voor de template door  Wim van der Kuil - Leuven-Template.eu

U vindt ons ook hier:

Het Weer Aktueel

UK Metoffice

European Weather Network

Weather Underground

AWEKAS

Citizen Weather Observer Program (CWOP)

HAMweather, WeatherForYou, PWS Weather

Apparatuur in gebruik:

Weerstation
Davis Vue ISS

Weerprogramma
Meteobridge

Weercomputer
Asus WL -330N3G

Webleverancier
Weerhuisje.nl

Davis Vue ISS

Meteobridge

Asus WL -330N3G

Weerhuisje.nl